User: anonymous   Login
Location: Squamish
(49.7000°N, 123.1500°W)
Time: 04:58:51
(UTC-07:00)
Language:

NOAA 19 - Orbit

View from above orbital plane
View from above orbital plane
View from above satellite
View from above satellite

Ground track
Ground track

The orbit data is extracted from the following two-line orbital elements,

1 33591U 09005A   16238.52671771  .00000113  00000-0  86643-4 0  9997
2 33591  99.0464 195.8911 0014623  27.7588 332.4360 14.12099804388921
Epoch (UTC): 25 August 2016 12:38:28
Eccentricity: 0.0014623
inclination: 99.0464°
perigee height: 841 km
apogee height: 863 km
right ascension of ascending node: 195.8911°
argument of perigee: 27.7588°
revolutions per day: 14.12099804
mean anomaly at epoch: 332.4360°
orbit number at epoch: 38892

The dashed part of the orbit path shows where the satellite is in the earth's shadow,  

DLR